Regional Weather Roundup
Issued by NWS

Home | Current Version | Previous Version | Graphics & Text | Print | Product List | Glossary On
Versions: 1 2 3 4 5 6 7 8 9 10 11 12 13 14 15 16 17 18 19 20 21 22 23 24 25 26 27 28 29 30 31 32 33 34 35 36 37 38 39 40 41 42 43 44 45 46 47 48 49 50
000
ASUS43 KOAX 100210
RWRNE

WEATHER ROUNDUP FOR NEBRASKA
NATIONAL WEATHER SERVICE OMAHA NE
800 PM CST TUE FEB 09 2016

NOTES: SATELLITE DATA IS BEING USED TO AUGMENT CLOUD COVER ABOVE
       12000 FEET.
       "FAIR" INDICATES FEW OR NO CLOUDS BELOW 12,000 FEET WITH NO
       SIGNIFICANT WEATHER AND/OR OBSTRUCTIONS TO VISIBILITY.

  * THESE STATIONS DO NOT REPORT WEATHER SUCH AS RAIN...SNOW OR FOG.

NEZ001>004-019>022-054>056-100300-
NEBRASKA PANHANDLE

CITY           SKY/WX    TMP DP  RH WIND       PRES   REMARKS
SCOTTSBLUFF    CLEAR     41  29  62 W16       30.19F
ALLIANCE       CLEAR     34  30  85 W10       30.14S WCI  26
CHADRON        CLEAR     40  31  70 W13       30.13F WCI  32
KIMBALL        CLEAR     37  28  72 W12       30.22F WCI  29
SIDNEY         CLEAR     39  30  70 W16       30.19F WCI  30
$$

NEZ057>060-069>072-079>082-100300-
SOUTHWEST NEBRASKA

CITY           SKY/WX    TMP DP  RH WIND       PRES   REMARKS
NORTH PLATTE   CLOUDY    35  27  72 CALM      30.16F
IMPERIAL       CLOUDY    39  30  70 W10       30.17F WCI  32
LEXINGTON      CLOUDY    31  24  73 S6        30.18F WCI  26
MCCOOK         CLOUDY    34  26  72 S6        30.19F WCI  29
OGALLALA       CLEAR     35  31  86 SW6       30.16S WCI  29
$$

NEZ005>010-023>029-035>040-094-100300-
NORTH CENTRAL NEBRASKA

CITY           SKY/WX    TMP DP  RH WIND       PRES   REMARKS
VALENTINE      CLOUDY    36  27  69 CALM      30.11F
AINSWORTH      CLOUDY    33  25  71 SW3       30.11F
BROKEN BOW     CLOUDY    28  22  78 S5        30.16F WCI  23
O`NEILL        CLOUDY    27  19  70 SW5       30.16F WCI  22
ORD            CLOUDY    27  17  66 SE3       30.17F
THEDFORD       CLOUDY    38  31  74 CALM      30.14F
$$

NEZ041-046>049-061>064-073>077-083>087-100300-
SOUTH CENTRAL NEBRASKA

CITY           SKY/WX    TMP DP  RH WIND       PRES   REMARKS
GRAND ISLAND   CLOUDY    22  13  68 S6        30.23F WCI  14
AURORA         CLOUDY    22  14  73 SW7       30.23F WCI  13
HASTINGS       CLOUDY    24  13  62 S7        30.22F WCI  16
HEBRON         CLOUDY    23  16  73 SW5       30.27F WCI  17
HOLDREGE       CLOUDY    28  19  71 S7        30.20F WCI  20
YORK           CLOUDY    23  16  74 SW7       30.24F WCI  15
$$

NEZ011>018-030>034-042>045-100300-
NORTHEAST NEBRASKA

CITY           SKY/WX    TMP DP  RH WIND       PRES   REMARKS
NORFOLK        CLOUDY    22  13  68 SW5       30.21S WCI  16
ALBION         CLOUDY    24  16  71 CALM      30.20F
BLAIR          CLOUDY    21  15  75 CALM      30.23S
COLUMBUS *     CLOUDY    19   7  58 CALM      30.24F
FREMONT        CLEAR     18  12  77 CALM      30.25S
WAYNE          CLOUDY    17  12  82 CALM      30.23F
$$

NEZ050>053-065>068-078-088>093-100300-
SOUTHEAST NEBRASKA

CITY           SKY/WX    TMP DP  RH WIND       PRES   REMARKS
LINCOLN        CLEAR     24  14  65 W6        30.27F WCI  17
OMAHA EPPLEY   CLOUDY    24  15  68 NW7       30.26S WCI  16
BEATRICE       CLEAR     23  16  73 W7        30.27F WCI  15
FALLS CITY     PTCLDY    20  10  65 NW6       30.27F WCI  12
NEBRASKA CITY  CLEAR     19  11  72 NW5       30.26S WCI  12
PLATTSMOUTH    CLOUDY    20  12  72 W6        30.25S WCI  12
$$

NEZ044-045-051>053-067-100300-
OMAHA AREA

CITY           SKY/WX    TMP DP  RH WIND       PRES   REMARKS
OMAHA EPPLEY   CLOUDY    24  15  68 NW7       30.26S WCI  16
BLAIR          CLOUDY    21  15  75 CALM      30.23S
FREMONT        CLEAR     18  12  77 CALM      30.25S
MILLARD        CLOUDY    23  14  67 CALM      30.26S
OFFUTT AFB     CLOUDY    23  14  69 W9        30.25F WCI  13
PLATTSMOUTH    CLOUDY    20  12  72 W6        30.25S WCI  12
WAHOO          FAIR      18  13  78 NE3       30.26R
$$



USA.gov is the U.S. government's official web portal to all federal, state and local government web resources and services.